Showing default

DUMMY SAT 2/BREEZE-M, 40355

Orbit data source: Space-Track

DUMMY SAT 2/BREEZE-M, 40355 is a payload satellite owned by Khrunichev (CIS) in GEO that was launched on Tue, 23 Dec 2014 UTC via an ANGARA A5 launch vehicle from the Plesetsk Missile And Space Complex (PKMTR). Payload-class satellites include a variety of spacecraft equipped with specific instruments for various scientific and technological missions. These include communications satellites like Starlink; space stations such as the ISS; scientific satellites like the Hubble; Earth observation satellites from companies like Planet Labs, Umbra, and HawkEye 360; GPS; miniature CubeSats for education and research; and military/defense satellites.

Not visible in the next 10 days
Identifier
40355, 2014-085A
Orbit
GEO
Country
Flag of CISCIS
Related business
Manufacturer
Khrunichev
Mission
Non-operational Civil Technology
Bus & Motor
GVM, Unknown motor
Mass
~3,600 kg wet, 2,042 kg dry
Launch date (UTC)
2014-12-23 (11 years ago)
Launch vehicle
ANGARA A5
Launch site
Plesetsk Missile And Space Complex (PKMTR)
Object type
Payload
Rocket body
Debris
Shape & HBR
Flared Cyl, 2.0 m
Radar Cross Section
7.854 m², Large (>1 m²)

Expand to show TLE details & history
Last TLE update: 6 hours ago

TLE from 6 hours ago
0 DUMMY SAT 2/BREEZE-M
1 40355U 14085A   25342.57259872 -.00000193  00000-0  00000-0 0  9990
2 40355   9.8326  62.4761 0366762 349.7026   9.4811  0.94060908 37429
Epoch: 2025-12-08T13:44Z
TLE epoch observation values (Epoch: 2025-12-08T13:44:32.529Z)
Latitude
0.00001°
Longitude
138.66609°
Altitude
36,026.941 km
Speed
3.121 km/s
True Right ascension
04h 09m 29s
True Declination
0° 00' 00"
Sunlit
Object was in daylight at epoch
Visualization orbit readout
Latitude
Unknown
Longitude
Unknown
Altitude
Unknown
Speed
Unknown
Apparent Right ascension
Unknown
Apparent Declination
Unknown
Sunlit
N/A
Visualization observer readout
Local Sidereal Time
17:31:31
Azimuth
Unknown
Elevation
Unknown
Doppler factor
Unknown
Orbital elements
Apogee altitude
39,237.659 km
Perigee altitude
36,010.009 km
Semi-major axis
44,001.971 km
Eccentricity
0.03668
Inclination
9.8326°
RAAN
62.4761°
Arg. of periapsis
349.7026°
True anomaly
10.20609°
Mean anomaly
9.4811°
Eccentric anomaly
9.84023°
Mean motion
0.23514 °/min
Orbital period
1,530.97 mins
BSTAR
0
Loading maneuver chart data...
Computing Atmospheric mass density...
Loading historical data...
Loading historical data...
Loading historical data...
Loading historical data...
Loading historical data...
Loading historical data...
Loading historical data...
Other satellites on launch #85 in the year 2014 (2014-12-23 UTC)

Documentation

Showing up to 5 results
|